UCA4985 KIAH-KLCH

Flight info

Callsign UCA4985
Flight time 0h 26m
Altitude 14000
Route GUMBY3 LCH
Aircraft E145/M-SDFGIRW/S

Departure

Time 2026-04-22 03:11
Airport George Bush Intercontinental Airport (KIAH)

Arrival

Time 2026-04-22 03:38
Airport Lake Charles Regional Airport (KLCH)
Time Latitude Longitude Altitude Speed Heading
2026-04-22 02:45 29.98524 -95.34537 98 ft 0 kts 295°
2026-04-22 03:01 29.98510 -95.34504 98 ft 0 kts 295°
2026-04-22 03:02 29.98506 -95.34489 98 ft 0 kts 191°
2026-04-22 03:02 29.98494 -95.34505 98 ft 0 kts 191°
2026-04-22 03:05 29.98493 -95.34506 98 ft 0 kts 191°
2026-04-22 03:05 29.98477 -95.34506 98 ft 3 kts 182°
2026-04-22 03:05 29.98428 -95.34508 98 ft 12 kts 181°
2026-04-22 03:06 29.98364 -95.34559 97 ft 13 kts 246°
2026-04-22 03:06 29.98333 -95.34675 95 ft 17 kts 257°
2026-04-22 03:06 29.98325 -95.34776 95 ft 10 kts 268°
2026-04-22 03:06 29.98325 -95.34868 95 ft 10 kts 270°
2026-04-22 03:07 29.98324 -95.34966 95 ft 13 kts 270°
2026-04-22 03:07 29.98325 -95.35085 95 ft 15 kts 270°
2026-04-22 03:07 29.98381 -95.35191 95 ft 17 kts 319°
2026-04-22 03:07 29.98489 -95.35269 95 ft 19 kts 332°
2026-04-22 03:08 29.98596 -95.35335 95 ft 16 kts 333°
2026-04-22 03:08 29.98694 -95.35397 95 ft 14 kts 331°
2026-04-22 03:08 29.98782 -95.35452 95 ft 14 kts 332°
2026-04-22 03:08 29.98874 -95.35508 95 ft 10 kts 318°
2026-04-22 03:09 29.98869 -95.35588 95 ft 9 kts 243°
2026-04-22 03:09 29.98843 -95.35651 95 ft 5 kts 243°
2026-04-22 03:09 29.98821 -95.35697 95 ft 7 kts 241°
2026-04-22 03:09 29.98786 -95.35765 95 ft 9 kts 221°
2026-04-22 03:10 29.98746 -95.35762 95 ft 7 kts 150°
2026-04-22 03:10 29.98691 -95.35726 95 ft 10 kts 150°
2026-04-22 03:10 29.98612 -95.35677 95 ft 18 kts 154°
2026-04-22 03:10 29.98365 -95.35527 95 ft 78 kts 151°
2026-04-22 03:11 29.97645 -95.35084 97 ft 148 kts 150°
2026-04-22 03:11 29.96681 -95.34496 667 ft 161 kts 151°
2026-04-22 03:11 29.95761 -95.33781 1446 ft 169 kts 128°
2026-04-22 03:11 29.95377 -95.32474 2253 ft 182 kts 95°
2026-04-22 03:12 29.95202 -95.30987 2948 ft 200 kts 110°
2026-04-22 03:12 29.94442 -95.27718 4141 ft 226 kts 108°
2026-04-22 03:12 29.94011 -95.25886 4084 ft 238 kts 108°
2026-04-22 03:13 29.93701 -95.23972 4036 ft 248 kts 92°
2026-04-22 03:13 29.93754 -95.21941 4052 ft 249 kts 92°
2026-04-22 03:13 29.93771 -95.19923 4001 ft 253 kts 92°
2026-04-22 03:13 29.93805 -95.17880 3989 ft 250 kts 92°
2026-04-22 03:14 29.93836 -95.15884 3982 ft 245 kts 91°
2026-04-22 03:14 29.93865 -95.13917 3984 ft 241 kts 92°
2026-04-22 03:14 29.93893 -95.11990 3988 ft 237 kts 92°
2026-04-22 03:14 29.93919 -95.10053 3995 ft 250 kts 92°
2026-04-22 03:15 29.93947 -95.07981 4580 ft 262 kts 91°
2026-04-22 03:15 29.93811 -95.05860 5434 ft 269 kts 89°
2026-04-22 03:15 29.94165 -95.03744 6309 ft 275 kts 79°
2026-04-22 03:15 29.94401 -95.01554 7143 ft 281 kts 84°
2026-04-22 03:16 29.94588 -94.99292 7997 ft 287 kts 85°
2026-04-22 03:16 29.94767 -94.96955 8816 ft 293 kts 85°
2026-04-22 03:16 29.94945 -94.94598 9613 ft 299 kts 85°
2026-04-22 03:16 29.95008 -94.93751 9895 ft 301 kts 85°
2026-04-22 03:17 29.95169 -94.91601 10585 ft 306 kts 84°
2026-04-22 03:17 29.95359 -94.89072 10825 ft 333 kts 84°
2026-04-22 03:17 29.95565 -94.86300 11024 ft 357 kts 84°
2026-04-22 03:17 29.95782 -94.83382 11730 ft 363 kts 84°
2026-04-22 03:18 29.96000 -94.80434 12504 ft 366 kts 83°
2026-04-22 03:18 29.96219 -94.77489 13170 ft 373 kts 83°
2026-04-22 03:18 29.96444 -94.74436 13788 ft 375 kts 83°
2026-04-22 03:18 29.96667 -94.71413 13969 ft 386 kts 83°
2026-04-22 03:19 29.96899 -94.68249 13987 ft 401 kts 83°
2026-04-22 03:19 29.97138 -94.64964 14001 ft 414 kts 83°
2026-04-22 03:19 29.97380 -94.61628 13977 ft 417 kts 83°
2026-04-22 03:19 29.97628 -94.58202 13987 ft 418 kts 83°
2026-04-22 03:20 29.97870 -94.54847 14001 ft 418 kts 83°
2026-04-22 03:20 29.98112 -94.51480 13988 ft 419 kts 83°
2026-04-22 03:20 29.98356 -94.48089 13986 ft 418 kts 83°
2026-04-22 03:20 29.98595 -94.44739 13985 ft 416 kts 83°
2026-04-22 03:21 29.98831 -94.41415 13995 ft 415 kts 83°
2026-04-22 03:21 29.99066 -94.38097 13995 ft 415 kts 83°
2026-04-22 03:21 29.99304 -94.34743 13999 ft 414 kts 84°
2026-04-22 03:21 29.99542 -94.31355 13988 ft 414 kts 84°
2026-04-22 03:22 29.99892 -94.28017 13995 ft 412 kts 80°
2026-04-22 03:22 30.00293 -94.24786 13982 ft 411 kts 80°
2026-04-22 03:22 30.00697 -94.21471 13987 ft 411 kts 81°
2026-04-22 03:22 30.01101 -94.18138 13991 ft 410 kts 81°
2026-04-22 03:23 30.01501 -94.14821 13984 ft 410 kts 81°
2026-04-22 03:23 30.01895 -94.11549 13982 ft 409 kts 81°
2026-04-22 03:23 30.02281 -94.08258 13981 ft 409 kts 83°
2026-04-22 03:23 30.02212 -94.04936 13992 ft 409 kts 91°
2026-04-22 03:24 30.02476 -94.01697 13996 ft 406 kts 80°
2026-04-22 03:24 30.02879 -93.98476 13990 ft 406 kts 80°
2026-04-22 03:24 30.03277 -93.95247 13979 ft 398 kts 80°
2026-04-22 03:24 30.03665 -93.92088 13987 ft 386 kts 80°
2026-04-22 03:25 30.04042 -93.89056 13990 ft 376 kts 80°
2026-04-22 03:25 30.04474 -93.86070 13983 ft 366 kts 72°
2026-04-22 03:25 30.05467 -93.83401 13960 ft 356 kts 61°
2026-04-22 03:25 30.06563 -93.80825 13576 ft 348 kts 61°
2026-04-22 03:26 30.07630 -93.78308 13202 ft 338 kts 61°
2026-04-22 03:26 30.08654 -93.75902 12838 ft 330 kts 61°
2026-04-22 03:26 30.09671 -93.73518 12469 ft 323 kts 61°
2026-04-22 03:26 30.10665 -93.71195 12036 ft 319 kts 60°
2026-04-22 03:27 30.11640 -93.68920 11489 ft 304 kts 60°
2026-04-22 03:27 30.12555 -93.66790 11000 ft 290 kts 60°
2026-04-22 03:27 30.13442 -93.64732 10504 ft 280 kts 60°
2026-04-22 03:27 30.14316 -93.62724 10003 ft 271 kts 61°
2026-04-22 03:28 30.15167 -93.60780 9503 ft 264 kts 61°
2026-04-22 03:28 30.15994 -93.58917 9012 ft 258 kts 60°
2026-04-22 03:28 30.16813 -93.57099 8510 ft 254 kts 61°
2026-04-22 03:28 30.17683 -93.55311 8003 ft 249 kts 50°
2026-04-22 03:29 30.18973 -93.54041 7550 ft 243 kts 31°
2026-04-22 03:29 30.20407 -93.53004 7060 ft 242 kts 31°
2026-04-22 03:29 30.21864 -93.51973 6556 ft 241 kts 31°
2026-04-22 03:29 30.23318 -93.50966 6057 ft 241 kts 31°
2026-04-22 03:30 30.24769 -93.49995 5567 ft 241 kts 31°
2026-04-22 03:30 30.26232 -93.49042 5075 ft 240 kts 32°
2026-04-22 03:30 30.27374 -93.47729 4655 ft 224 kts 67°
2026-04-22 03:30 30.27846 -93.46054 4172 ft 213 kts 85°
2026-04-22 03:31 30.27836 -93.44379 3683 ft 205 kts 97°
2026-04-22 03:31 30.27749 -93.42754 3185 ft 201 kts 97°
2026-04-22 03:31 30.27666 -93.41139 2683 ft 198 kts 97°
2026-04-22 03:31 30.27578 -93.39554 2184 ft 195 kts 97°
2026-04-22 03:32 30.27471 -93.38048 2009 ft 175 kts 104°
2026-04-22 03:32 30.27193 -93.36781 2016 ft 154 kts 108°
2026-04-22 03:32 30.26920 -93.35599 2004 ft 149 kts 108°
2026-04-22 03:32 30.26593 -93.34449 2011 ft 147 kts 118°
2026-04-22 03:33 30.26128 -93.33395 2008 ft 147 kts 120°
2026-04-22 03:33 30.25655 -93.32341 2011 ft 147 kts 120°
2026-04-22 03:33 30.25182 -93.31284 2008 ft 147 kts 120°
2026-04-22 03:33 30.24706 -93.30222 2013 ft 150 kts 120°
2026-04-22 03:34 30.24207 -93.29148 2007 ft 148 kts 128°
2026-04-22 03:34 30.23400 -93.28501 2014 ft 135 kts 153°
2026-04-22 03:34 30.22549 -93.28036 2016 ft 136 kts 152°
2026-04-22 03:34 30.21679 -93.27560 1982 ft 140 kts 152°
2026-04-22 03:35 30.20811 -93.27084 1771 ft 136 kts 152°
2026-04-22 03:35 30.19986 -93.26640 1575 ft 124 kts 152°
2026-04-22 03:35 30.19205 -93.26217 1392 ft 121 kts 152°
2026-04-22 03:35 30.18453 -93.25808 1218 ft 122 kts 152°
2026-04-22 03:36 30.17679 -93.25388 1062 ft 122 kts 153°
2026-04-22 03:36 30.16896 -93.24977 898 ft 123 kts 153°
2026-04-22 03:36 30.16116 -93.24558 738 ft 126 kts 153°
2026-04-22 03:36 30.15307 -93.24130 606 ft 127 kts 153°
2026-04-22 03:37 30.14504 -93.23689 428 ft 127 kts 153°
2026-04-22 03:37 30.13696 -93.23242 238 ft 130 kts 153°
2026-04-22 03:37 30.12884 -93.22801 39 ft 126 kts 152°
2026-04-22 03:37 30.12138 -93.22391 10 ft 100 kts 153°
2026-04-22 03:38 30.11699 -93.22152 9 ft 41 kts 154°
2026-04-22 03:38 30.11477 -93.22034 9 ft 34 kts 154°
2026-04-22 03:38 30.11345 -93.21960 9 ft 18 kts 154°
2026-04-22 03:38 30.11281 -93.21856 9 ft 14 kts 104°
2026-04-22 03:39 30.11321 -93.21749 9 ft 14 kts 43°
2026-04-22 03:39 30.11401 -93.21761 9 ft 13 kts 334°
2026-04-22 03:39 30.11496 -93.21812 9 ft 16 kts 335°
2026-04-22 03:39 30.11608 -93.21874 9 ft 18 kts 334°
2026-04-22 03:40 30.11729 -93.21940 9 ft 20 kts 335°
2026-04-22 03:40 30.11864 -93.22012 10 ft 21 kts 335°
2026-04-22 03:40 30.11981 -93.22076 12 ft 11 kts 335°
2026-04-22 03:40 30.12063 -93.22121 13 ft 14 kts 335°
2026-04-22 03:41 30.12139 -93.22156 13 ft 5 kts 15°
2026-04-22 03:41 30.12163 -93.22111 13 ft 7 kts 64°
2026-04-22 03:41 30.12202 -93.22083 13 ft 7 kts 342°
2026-04-22 03:41 30.12254 -93.22112 13 ft 8 kts 334°
2026-04-22 03:42 30.12308 -93.22141 13 ft 7 kts 341°
2026-04-22 03:42 30.12329 -93.22123 13 ft 6 kts 62°
2026-04-22 03:42 30.12333 -93.22115 13 ft 0 kts 63°
2026-04-22 03:42 30.12338 -93.22102 13 ft 1 kts 66°
2026-04-22 03:43 30.12338 -93.22100 13 ft 0 kts 66°